FALCONSAT-3 (30776 NORAD) Tracking and Keplerian Element Data

This shows tracking and keplerian element data for the satellite.

Feedback or suggestion? Click here.




ElementValue
Catalog30776
NameFALCONSAT-3
Epoch Orbit87394
Epoch Day324.31114742
Epoch Year2022
RAAN308.5501
Inclination35.4266
Eccentricity0.0007085
Argument of Perigee201.4481
Mean Anonmoly158.5961
Mean Motion15.73166597
Decay Rate0.00106199
L11 30776U 07006E 22324.31114742 .00106199 00000+0 73501-3 0 9996
L22 30776 35.4266 308.5501 0007085 201.4481 158.5961 15.73166597873949



Live tracking and technical data element details for FALCONSAT-3 (NORAD 30776). FALCONSAT-3 can be tracked NOW for your location showing map with azimuth and elevation plus other details from your city location.







IsCatalogInMostPopularTable: catalog: 30776, numindb: 491
Update: records affected: 1



GetName: 30776 FALCONSAT-3

Hit Count: updated at: Mon, 28 Nov 2022 06:02:10 GMT